This is the latest recevied weather packets stored in our database for station/object KE7JVX-3. If no packets are shown the sender has not sent any weather packets the latest 10 day(s).
| Time | Temp. | Humidity | Pressure | Rain* | Wind** | Luminosity | Snow |
|---|---|---|---|---|---|---|---|
| 1777432047 | 7.78° C | 4% | 1012.8 hPa | 0 mm | - | - | - |
| 1777431447 | 7.78° C | 6% | 1012.7 hPa | 0 mm | - | - | - |
| 1777430938 | 7.78° C | 8% | 1012.5 hPa | 0 mm | - | - | - |
| 1777430848 | 7.78° C | 8% | 1012.5 hPa | 0 mm | - | - | - |
| 1777430247 | 7.78° C | 6% | 1012.5 hPa | 0 mm | - | - | - |
| 1777429647 | 7.78° C | 1% | 1012.4 hPa | 0 mm | - | - | - |
| 1777429047 | 7.78° C | 1% | 1012.2 hPa | 0 mm | - | - | - |
| 1777428447 | 7.78° C | 1% | 1012.2 hPa | 0 mm | - | - | - |
| 1777427847 | 7.78° C | 2% | 1012.2 hPa | 0 mm | - | - | - |
| 1777427247 | 7.78° C | 2% | 1012.2 hPa | 0 mm | - | - | - |
| 1777426647 | 8.33° C | 3% | 1012.3 hPa | 0 mm | - | - | - |
| 1777426047 | 8.33° C | 4% | 1012.3 hPa | 0 mm | - | - | - |
| 1777425510 | 8.33° C | 3% | 1012.4 hPa | 0 mm | - | - | - |
| 1777425449 | 8.33° C | 3% | 1012.4 hPa | 0 mm | - | - | - |
| 1777424847 | 8.89° C | 2% | 1012.3 hPa | 0 mm | - | - | - |
| 1777424247 | 8.89° C | 1% | 1012.4 hPa | 0 mm | - | - | - |
| 1777422567 | 10° C | 1% | 1012.6 hPa | 0 mm | - | - | - |
| 1777422019 | 10° C | 1% | 1012.6 hPa | 0 mm | - | - | - |
| 1777421967 | 10° C | 1% | 1012.6 hPa | 0 mm | - | - | - |
| 1777421367 | 10.56° C | 3% | 1012.5 hPa | 0 mm | - | - | - |
| 1777420767 | 10.56° C | 2% | 1012.6 hPa | 0 mm | - | - | - |
| 1777420167 | 10.56° C | 2% | 1012.4 hPa | 0 mm | - | - | - |
| 1777419567 | 10.56° C | 1% | 1012.4 hPa | 0 mm | - | - | - |
| 1777418967 | 10.56° C | 1% | 1012.2 hPa | 0 mm | - | - | - |
| 1777418367 | 11.11° C | 1% | 1012.4 hPa | 0 mm | - | - | - |
* Rain latest hour (hover to see other rain measurements)
** Current wind speed in m/s (hover to see current wind gust speed)